Regional Weather Roundup
Issued by NWS Upton, NY

Current Version | Previous Version | Graphics & Text | Print | Product List | Glossary Off
Versions: 1 2 3 4 5 6 7 8 9 10 11 12 13 14 15 16 17 18 19 20 21 22 23 24 25 26 27

000
ASUS41 KOKX 162205
RWROKX

REGIONAL WEATHER ROUNDUP
NATIONAL WEATHER SERVICE NEW YORK NY
600 PM EDT WED APR 16 2014

NOTE: "FAIR" INDICATES FEW OR NO CLOUDS BELOW 12,000 FEET WITH NO
SIGNIFICANT WEATHER AND/OR OBSTRUCTIONS TO VISIBILITY.

NYZ071-072-176-178-NJZ106-104-162300-
NEW YORK CITY METRO AREA


CITY           SKY/WX    TMP DP  RH WIND       PRES   REMARKS
CENTRAL PARK   SUNNY     48  16  27 MISG      30.45R
LAGUARDIA APRT SUNNY     47  17  30 N8        30.43R
KENNEDY INTL   MOSUNNY   48  13  24 N15       30.43R
NEWARK/LIBERTY MOSUNNY   47  14  26 N10G20    30.44R
TETERBORO      SUNNY     49  18  29 NW10      30.43R
$$

NYZ177-179-078>081-162300-
LONG ISLAND NEW YORK

CITY           SKY/WX    TMP DP  RH WIND       PRES   REMARKS
FARMINGDALE    SUNNY     45  16  31 N13G24    30.43R
ISLIP          MOSUNNY   45  12  26 N20G26    30.40R
SHIRLEY        SUNNY     44  15  31 N15G24    30.43R
WESTHAMPTON    SUNNY     45  15  30 N17       30.43R
MONTAUK POINT    N/A     47  20  34 N9        30.42R
$$

NYZ052-065-067-162300-
HUDSON VALLEY

CITY           SKY/WX    TMP DP  RH WIND       PRES   REMARKS
WHITE PLAINS   SUNNY     44  17  33 N9        30.42R
NEWBURGH       SUNNY     45  12  26 N17       30.44R
MONTGOMERY     SUNNY     45  15  30 N7        30.43R
POUGHKEEPSIE   SUNNY     44  14  29 N10       30.45R
ALBANY         SUNNY     41  13  31 W10G16    30.47R
$$

NJZ001-105-106-008-010-013-015-019>022-104-162300-
NEW JERSEY

CITY           SKY/WX    TMP DP  RH WIND       PRES   REMARKS
NEWARK/LIBERTY MOSUNNY   47  14  26 N10G20    30.44R
TETERBORO      SUNNY     49  18  29 NW10      30.43R
CALDWELL       SUNNY     46  14  27 NE9       30.45R
MORRISTOWN     SUNNY     46  14  27 N9G21     30.45R
SOMERVILLE     SUNNY     47  14  26 N10       30.43R
LINDEN         FAIR      49  18  29 N12       30.46R
SUSSEX           N/A     46  15  28 N9        30.44R
ANDOVER          N/A     43  15  32 N10       30.44R
TRENTON        SUNNY     46  17  31 N13G23    30.43R
MILLVILLE      SUNNY     48  21  34 NE9       30.42R
ATLANTIC CITY  SUNNY     47  26  44 SE10      30.42R
WRIGHTSTOWN    SUNNY     47  20  34 N12       30.40S
TOMS RIVER     SUNNY     46  19  34 N9        30.42S
BELMAR         SUNNY     46  18  31 N16       30.42R
$$

PAZ047>061-062-071-162300-
EASTERN PENNSYLVANIA

CITY           SKY/WX    TMP DP  RH WIND       PRES   REMARKS
PHILADELPHIA   MOSUNNY   48  16  27 N13G21    30.44S
ALLENTOWN      SUNNY     46  18  32 NE7       30.44S
SCRANTON       SUNNY     40  17  39 N5        30.45R
$$

CTZ002-004>006-009-010-012-RIZ004-006-007-MAZ004-011-015-162300-
SOUTHERN NEW ENGLAND
 IN CT

CITY           SKY/WX    TMP DP  RH WIND       PRES   REMARKS
BRADLEY INTL   SUNNY     44  13  28 N8        30.43R
HARTFORD       SUNNY     44  13  28 N14G21    30.44R
DANBURY        SUNNY     42  15  33 N12G18    30.45R
WTRBRY/OXFORD  SUNNY     39  16  38 N10G21    30.44R WCI  32
BRIDGEPORT     SUNNY     46  13  26 N14       30.44R
MERIDEN        SUNNY     45  13  27 NW10      30.43R
NEW HAVEN      SUNNY     46  14  27 NW10G21   30.43R
CHESTER        FAIR      43  12  28 N16G22    30.41R
GROTON         SUNNY     46  15  28 N10       30.41R
WILLIMANTIC    SUNNY     45  14  28 N14       30.42R

 IN RI

CITY           SKY/WX    TMP DP  RH WIND       PRES   REMARKS
PROVIDENCE     SUNNY     45  15  30 NW10      30.42R
BLOCK ISLAND   SUNNY     45  23  42 E8        30.41R
WESTERLY       SUNNY     47  17  30 N9G17     30.41R

 IN MA

CITY           SKY/WX    TMP DP  RH WIND       PRES   REMARKS
BOSTON         MOSUNNY   43  15  32 NW16G24   30.44R
WORCESTER      SUNNY     38  14  37 N14       30.40R WCI  30
WESTFIELD      SUNNY     44  13  28 N12       30.44R
PROVINCETOWN   SUNNY     39  21  48 MISG      30.44R
NANTUCKET      SUNNY     40  18  41 N18       30.42R WCI  31
$$

ANZ330-335-338-340-345-350-353-355-162300-
COASTAL MARINE OBSERVATIONS


STATION/POSITION TIME  SKY/WX   TEMP    WIND        PRES    VSBY  WAVE
                                AIR SEA DIR/SP/G                  HT/PER
                 (UTC)          (F)     (DEG/KT/KT) (MB)    (MI)  (FT/S)
NY HARB ENTRANCE 2200            44 43  350/ 10/ 12 1030.2
4S FIRE IS       2100               44                N/A           4/12
23SW MTP         2200            42 42   10/  8/ 10 1029.5          4/10
HUDSON CANYON    2100            40 45  360/ 17/ 21 1029.0          7/ 6
EXECUTION ROCKS  2200            47 42   20/  8/ 16   N/A
WESTERN LI SOUND 2200            45     360/ 10/ 16   N/A           1/ 2
CENTRAL LI SOUND 2100            43 42  320/ 12/ 16   N/A           2/ 3
EASTERN LI SOUND NOT AVBL
ROBBINS REEF     2200            45     360/  9/ 13   N/A
$$


>>>>>>>>>>>>>>>>>>>>>>>>>>>> KEY <<<<<<<<<<<<<<<<<<<<<<<<<<<
>                                                          <
>     SKY/WX - SKY CONDITION/PRESENT WEATHER               <
>     TMP    - TEMPERATURE IN FAHRENHEIT                   <
>     DP     - DEWPOINT IN FAHRENHEIT                      <
>     RH     - RELATIVE HUMIDITY IN PERCENT                <
>     WIND   - DIRECTION AND SPEED IN MPH                  <
>     PRES   - MEAN SEA LEVEL PRESSURE IN INCHES OF HG     <
>     WCI    - WIND CHILL INDEX                            <
>     VSB    - VISIBILITY IN MILES                         <
>     HX     - HEAT INDEX                                  <
>     TC     - TEMPERATURE IN CELSIUS                      <
>     VRB    - VARIABLE WIND DIRECTION                     <
>                                                          <
>>>>>>>>>>>>>>>>>>>>>>>>>>>> KEY <<<<<<<<<<<<<<<<<<<<<<<<<<<





USA.gov is the U.S. government's official web portal to all federal, state and local government web resources and services.